NEOSSAT

Satellite information

Favourite Embed

Satellite Type and Status

PAYLOADIN ORBIT

Key statistics

Satellite NEOSSAT at a glance.

Uptime

4577

Days in orbit

Revolutions

≈ 14.4

Per day

Orbit

SSO

Sun Synchronous Orbit

Inclination

98.4

Latest

Satellite identification and parameters

Extended collection of information and parameters for NEOSSAT.

Object identification

Identified? True

Debris? False

Object name: NEOSSAT

International designator: 2013-009D

Object number (NORAD): 39089

Object ID (CCSDS): 39089

Country: CANADA (CA)

Current information (Y/N): Y

RCS size: MEDIUM

Orbital parameters

Period: 100.303 minutes

Inclination: 98.4104 deg

SMA: 7151.032 km

Apoapsis: 781.011 km

Periapsis: 764.782 km

RAAN: 71.8379 deg

Eccentricy: 0.00113473

Argument of periapsis: 16.8479 deg

Mean anomaly: 343.3082 deg

Mean motion: 14.35653734 rev/day

Mean motion (dot): 0.00000333 rev/day2

B* drag term: 0.00013019562 1/REarth

Two-line elements (TLE)

Creation date: Sept. 7, 2025, 3:09 a.m.

Reference frame: TEME

Reference center: EARTH

Epoch: Sept. 6, 2025, 10:03 p.m. UTC

TLE line 0: 0 NEOSSAT

TLE line 1: 1 39089U 13009D 25249.91940876 .00000333 00000-0 13020-3 0 9996

TLE line 2: 2 39089 98.4104 71.8379 0011347 16.8479 343.3082 14.35653734656093

Live tracking on map

Real-time ground track for satellite NEOSSAT.

In-orbit conjunctions

There are no conjunctions computed for NEOSSAT, at the moment. Check back to stay up to date, as we update our databases every day.

Go to all conjunctions

Associated space launch

SARAL or Satellite with ARgos and ALtiKa is a cooperative altimetry technology mission of Indian Space Research Organisation (ISRO) and CNES (Space Agency of France). SARAL is tasked to perform altimetric measurements designed to study ocean circulation and sea surface elevation.

NEOSSAT was lifted into orbit during the mission ‘PSLV-CA | SARAL’, on board a PSLV space rocket.

The launch took place on Feb. 25, 2013, 12:31 p.m. from Satish Dhawan Space Centre First Launch Pad.

For more information about the launch, click the button.

Launch to space PSLV-CA | SARAL
PSLV-CA | SARAL

Agency: N/A

Status: Launch Successful

Launch date: Feb. 25, 2013, 12:31 p.m. UTC

Rocket: PSLV

Launch pad: Satish Dhawan Space Centre First Launch Pad

Location: Satish Dhawan Space Centre, India

...

Latest news about this satellite

There are no fresh news available about this satellite. Check back as we update our databases every day.


Newsletter sign-up

Weekly statistics, charts and insights to help you stay on top of the space industry.